Miscellaneous Local Product
Issued by NWS North Platte, NE

Home | Current Version | Previous Version | Text Only | Print | Product List | Glossary On
Versions: 1 2 3 4 5 6 7 8 9 10 11 12 13 14 15 16 17 18 19 20 21 22 23 24 25 26 27 28 29 30 31 32 33 34 35 36 37 38 39 40 41 42 43 44 45 46 47 48 49 50
945
AXUS43 KLBF 121010
MISLBF


WESTERN AND NORTH CENTRAL NEBRASKA HOURLY WEATHER ROUNDUP
NATIONAL WEATHER SERVICE NORTH PLATTE NE
400 AM CST FRI FEB 12 2016

NOTE: "FAIR" INDICATES FEW OR NO CLOUDS BELOW 12,000 FEET WITH NO
SIGNIFICANT WEATHER AND/OR OBSTRUCTIONS TO VISIBILITY.

NOTE: STATIONS NOT REPORTING VARIABLES SUCH AS SKY/WEATHER OR
PRESSURE ARE PROVIDED BY THE NEBRASKA DEPARTMENT OF
ROADS...RAWS...AND APRS NETWORKS...AND ARE NOT UNDER
NATIONAL WEATHER SERVICE QUALITY CONTROL.

...OBSERVATIONS IN AND NEAR THE EASTERN PANHANDLE OF NEBRASKA...

CITY           SKY/WX    TMP DP  RH WIND       PRES   REMARKS
PINE RIDGE     CLOUDY    33  29  85 NW3       30.27R
CHADRON        CLEAR     20  18  92 CALM      30.26S
ALLIANCE       CLOUDY    26  23  88 W3        30.23S
SIDNEY         CLOUDY    31  26  82 NW8       30.25S WCI  23
CRESCENT LAKE    N/A     31  26  81 N3          N/A
BIG SPRINGS      N/A     30  27  90 W3          N/A
$$

...OBSERVATIONS IN NORTH CENTRAL NEBRASKA...

CITY           SKY/WX    TMP DP  RH WIND       PRES   REMARKS
VALENTINE      CLOUDY    30  27  88 N7        30.28R WCI  23
THEDFORD       CLOUDY    32  30  93 W7        30.27R WCI  26
AINSWORTH      CLOUDY    31  28  90 N12       30.26S WCI  21
O`NEILL        CLOUDY    26  23  88 N7        30.28S WCI  19
ORD            MOCLDY    28  24  85 N9        30.27R WCI  19
BROKEN BOW     CLOUDY    32  28  85 N7        30.26R WCI  26
VALENTINE NWR    N/A     28  28  99 N6          N/A  WCI  22
BUTTE            N/A     24  23  95 NW7         N/A  WCI  16
HALSEY           N/A     27  26  97 CALM        N/A
CHAMBERS         N/A     26  23  88 N3          N/A
EWING            N/A     24  22  90 N6          N/A  WCI  17
$$

...OBSERVATIONS IN SOUTHWEST NEBRASKA AND FAR NORTHEAST COLORADO...

CITY           SKY/WX    TMP DP  RH WIND       PRES   REMARKS
HOLYOKE        FAIR      34  30  86 W7        30.27S WCI  28
IMPERIAL       CLEAR     30  25  81 W5        30.27R WCI  25
OGALLALA       CLEAR     29  26  88 W6        30.27R WCI  23
NORTH PLATTE   CLOUDY    26  23  88 CALM      30.27R
MCCOOK         CLEAR     29  26  89 NW8       30.28R WCI  21
LEXINGTON      CLOUDY    32  29  88 NW8       30.27S WCI  25
PAXTON           N/A     28  25  89 CALM        N/A
STAPLETON        N/A     27  26  95 CALM        N/A
GOTHENBURG       N/A     32  29  87 NW5         N/A  WCI  27
CALLAWAY         N/A     30  28  94 NW6         N/A  WCI  24
$$

...OBSERVATIONS IN CENTRAL LINCOLN COUNTY AREA...

CITY           SKY/WX    TMP DP  RH WIND       PRES   REMARKS
N.P. AIRPORT   CLOUDY    26  23  88 CALM      30.27R
N.P. DOWNTOWN    N/A     30  28  92 CALM        N/A
N.P. SOUTHEAST   N/A     29  26  89 CALM        N/A
N.P. HILLCREST   N/A     29  28  94 N3          N/A
$$

...SOME OBSERVATIONS FROM AROUND THE REGION...

CITY           SKY/WX    TMP DP  RH WIND       PRES   REMARKS
DENVER         CLOUDY    35  24  64 SE10      30.25F WCI  27
LARAMIE        CLOUDY    34  22  61 W6        30.28S WCI  29
CHEYENNE       CLOUDY    32  24  72 CALM      30.26S
SCOTTSBLUFF    CLOUDY    30  26  85 NW6       30.26R WCI  24
RAPID CITY     CLOUDY    31  28  89 NW3       30.28R
BISMARCK       CLOUDY    19  11  70 N8        30.40R WCI   9
PIERRE         CLOUDY    22  17  81 N12       30.35R WCI  10
WINNER         CLOUDY    29  25  85 N13       30.31R WCI  19
SIOUX FALLS    CLOUDY    19  13  77 N13       30.30R WCI   6
OMAHA          CLOUDY    23  19  85 N15       30.29R WCI  10
GRAND ISLAND   CLOUDY    27  24  89 N15       30.29R WCI  15
KANSAS CITY    CLOUDY    29  21  72 NE7       30.21R WCI  22
WICHITA        PTCLDY    31  26  82 NW7       30.22R WCI  24
OKLAHOMA CITY  CLOUDY    37  33  85 N7        30.20R WCI  32
LIBERAL        CLOUDY    30  19  64 NW9       30.26R WCI  22
GOODLAND       CLEAR     29  24  82 W7        30.28R WCI  22
$$




USA.gov is the U.S. government's official web portal to all federal, state and local government web resources and services.